| time (UTC) | temp F | wind direction | speed MPH | gust MPH | rain 1hr in | rain 24hr in | rain mn in | humidity % | barometer mb |
| 20260506014236 | 52 | 51 | 0.0 | 3.0 | 0.31 | 2.40 | 0.23 | 95 | 1008.3 |
| 20260506013742 | 52 | 355 | 1.0 | 4.0 | 0.35 | 2.40 | 0.23 | 95 | 1008.2 |
| 20260506013226 | 52 | 355 | 3.0 | 5.0 | 0.35 | 2.40 | 0.23 | 94 | 1008.2 |
| 20260506012735 | 52 | 69 | 4.0 | 5.0 | 0.39 | 2.40 | 0.23 | 94 | 1008.2 |
| 20260506012242 | 52 | 5 | 0.0 | 3.0 | 0.39 | 2.40 | 0.23 | 94 | 1008.3 |
| 20260506011746 | 52 | 5 | 2.0 | 4.0 | 0.35 | 2.36 | 0.22 | 94 | 1008.1 |
| 20260506011229 | 52 | 32 | 2.0 | 4.0 | 0.31 | 2.32 | 0.21 | 94 | 1008.2 |
| 20260506010732 | 52 | 48 | 2.0 | 4.0 | 0.28 | 2.24 | 0.19 | 94 | 1008.4 |
| 20260506010237 | 52 | 126 | 0.0 | 0.0 | 0.24 | 2.20 | 0.18 | 94 | 1008.4 |
| 20260506005742 | 52 | 146 | 0.0 | 0.0 | 0.16 | 2.13 | 0.16 | 95 | 1008.5 |
| 20260506005229 | 52 | 146 | 0.0 | 0.0 | 0.12 | 2.09 | 0.15 | 94 | 1008.6 |
| 20260506004733 | 52 | 65 | 0.0 | 0.0 | 0.12 | 2.09 | 0.15 | 94 | 1008.6 |
| 20260506004238 | 52 | 105 | 0.0 | 2.0 | 0.20 | 2.09 | 0.15 | 94 | 1008.5 |
| 20260506003723 | 52 | 105 | 0.0 | 2.0 | 0.20 | 2.05 | 0.14 | 94 | 1008.5 |
| 20260506003228 | 52 | 200 | 0.0 | 3.0 | 0.20 | 2.01 | 0.13 | 94 | 1008.6 |
| 20260506002753 | 52 | 200 | 2.0 | 3.0 | 0.28 | 2.01 | 0.13 | 94 | 1008.8 |
| 20260506002258 | 52 | 74 | 0.0 | 3.0 | 0.31 | 2.01 | 0.13 | 94 | 1008.8 |
| 20260506001740 | 52 | 74 | 1.0 | 3.0 | 0.35 | 2.01 | 0.13 | 94 | 1008.8 |
| 20260506001224 | 52 | 69 | 2.0 | 3.0 | 0.35 | 2.01 | 0.13 | 94 | 1008.8 |
| 20260506000733 | 52 | 16 | 0.0 | 0.0 | 0.35 | 1.97 | 0.12 | 94 | 1008.7 |
| 20260506000240 | 52 | 16 | 0.0 | 2.0 | 0.35 | 1.97 | 0.12 | 94 | 1008.8 |
| 20260505235743 | 52 | 24 | 0.0 | 2.0 | 0.35 | 1.97 | 0.12 | 94 | 1008.8 |
| 20260505235228 | 52 | 168 | 0.0 | 0.0 | 0.39 | 1.97 | 0.12 | 94 | 1008.9 |
| 20260505234733 | 52 | 168 | 0.0 | 0.0 | 0.39 | 1.97 | 0.12 | 94 | 1008.9 |
| 20260505234237 | 53 | 168 | 0.0 | 0.0 | 0.31 | 1.89 | 0.10 | 94 | 1008.9 |
| 20260505233742 | 52 | 168 | 0.0 | 0.0 | 0.31 | 1.85 | 0.09 | 94 | 1008.9 |
| 20260505233225 | 53 | 168 | 0.0 | 2.0 | 0.24 | 1.77 | 0.07 | 94 | 1009.0 |
| 20260505232730 | 52 | 168 | 1.0 | 2.0 | 0.20 | 1.73 | 0.06 | 94 | 1009.1 |
| 20260505232234 | 53 | 168 | 0.0 | 0.0 | 0.16 | 1.69 | 0.05 | 94 | 1009.0 |
| 20260505231740 | 53 | 168 | 0.0 | 1.0 | 0.12 | 1.65 | 0.04 | 94 | 1009.0 |
| 20260505231225 | 53 | 168 | 0.0 | 1.0 | 0.12 | 1.65 | 0.04 | 94 | 1009.2 |
| 20260505230750 | 53 | 168 | 0.0 | 2.0 | 0.12 | 1.61 | 0.03 | 94 | 1009.1 |
| 20260505230254 | 53 | 168 | 0.0 | 2.0 | 0.12 | 1.61 | 0.03 | 94 | 1009.2 |
| 20260505225743 | 53 | 168 | 1.0 | 2.0 | 0.12 | 1.61 | 0.03 | 94 | 1009.1 |
| 20260505225227 | 53 | 168 | 1.0 | 3.0 | 0.08 | 1.57 | 0.02 | 94 | 1009.0 |
| 20260505224732 | 53 | 168 | 2.0 | 3.0 | 0.08 | 1.57 | 0.02 | 94 | 1009.1 |
| 20260505224237 | 53 | 150 | 2.0 | 4.0 | 0.08 | 1.57 | 0.02 | 94 | 1009.0 |
| 20260505223741 | 52 | 186 | 2.0 | 8.0 | 0.08 | 1.54 | 0.01 | 94 | 1009.1 |
| 20260505223226 | 53 | 242 | 5.0 | 8.0 | 0.12 | 1.54 | 0.01 | 94 | 1009.1 |
| 20260505222731 | 53 | 207 | 4.0 | 7.0 | 0.20 | 1.54 | 0.01 | 94 | 1009.2 |
| 20260505222256 | 52 | 221 | 3.0 | 8.0 | 0.24 | 1.54 | 0.01 | 94 | 1009.1 |
| 20260505221738 | 52 | 5 | 4.0 | 8.0 | 0.31 | 1.54 | 0.01 | 94 | 1009.0 |
| 20260505221242 | 52 | 53 | 3.0 | 8.0 | 0.39 | 1.54 | 0.01 | 94 | 1009.1 |
| 20260505220726 | 52 | 37 | 3.0 | 5.0 | 0.43 | 1.50 | 0.00 | 94 | 1009.1 |
| 20260505220231 | 52 | 67 | 3.0 | 5.0 | 0.47 | 1.50 | 0.00 | 94 | 1009.2 |
| 20260505215741 | 52 | 54 | 3.0 | 5.0 | 0.51 | 1.50 | 0.38 | 94 | 1009.3 |
| 20260505215245 | 52 | 51 | 3.0 | 4.0 | 0.51 | 1.50 | 0.38 | 93 | 1009.3 |
| 20260505214731 | 53 | 355 | 0.0 | 0.0 | 0.51 | 1.50 | 0.38 | 93 | 1009.4 |
| 20260505214237 | 53 | 355 | 0.0 | 0.0 | 0.51 | 1.50 | 0.38 | 93 | 1009.5 |
| 20260505213742 | 53 | 80 | 0.0 | 0.0 | 0.47 | 1.46 | 0.37 | 94 | 1009.7 |
| 20260505213228 | 53 | 169 | 0.0 | 0.0 | 0.43 | 1.42 | 0.36 | 93 | 1009.8 |
| 20260505212752 | 53 | 167 | 0.0 | 0.0 | 0.35 | 1.34 | 0.34 | 93 | 1009.9 |
| 20260505212237 | 53 | 236 | 0.0 | 0.0 | 0.31 | 1.30 | 0.33 | 93 | 1009.9 |
| 20260505211742 | 53 | 360 | 0.0 | 0.0 | 0.24 | 1.22 | 0.31 | 93 | 1009.9 |
| 20260505211227 | 53 | 360 | 0.0 | 1.0 | 0.16 | 1.14 | 0.29 | 93 | 1010.0 |
| 20260505210732 | 53 | 338 | 0.0 | 1.0 | 0.08 | 1.06 | 0.27 | 93 | 1009.9 |
| 20260505210258 | 53 | 30 | 0.0 | 2.0 | 0.04 | 1.02 | 0.26 | 93 | 1010.0 |
| 20260505205741 | 53 | 30 | 0.0 | 3.0 | 0.00 | 0.98 | 0.25 | 93 | 1010.1 |
| 20260505205230 | 53 | 15 | 2.0 | 3.0 | 0.00 | 0.98 | 0.25 | 93 | 1010.1 |
| 20260505204733 | 53 | 39 | 2.0 | 3.0 | 0.00 | 0.98 | 0.25 | 93 | 1010.1 |
| 20260505204257 | 53 | 42 | 2.0 | 4.0 | 0.00 | 0.98 | 0.25 | 93 | 1010.1 |
| 20260505203801 | 53 | 34 | 2.0 | 5.0 | 0.00 | 0.98 | 0.25 | 93 | 1010.1 |
| 20260505203226 | 53 | 355 | 3.0 | 5.0 | 0.00 | 0.98 | 0.25 | 93 | 1010.0 |
| 20260505202731 | 53 | 23 | 4.0 | 5.0 | 0.00 | 0.98 | 0.25 | 93 | 1010.0 |
| 20260505202236 | 53 | 28 | 3.0 | 5.0 | 0.00 | 0.98 | 0.25 | 93 | 1010.0 |
| 20260505201741 | 53 | 5 | 2.0 | 4.0 | 0.00 | 0.98 | 0.25 | 93 | 1010.0 |
| 20260505201247 | 53 | 28 | 1.0 | 4.0 | 0.00 | 0.98 | 0.25 | 93 | 1010.0 |
| 20260505200730 | 53 | 34 | 0.0 | 0.0 | 0.04 | 0.98 | 0.25 | 93 | 1010.2 |
| 20260505200233 | 53 | 64 | 0.0 | 0.0 | 0.04 | 0.98 | 0.25 | 93 | 1010.2 |
| 20260505195737 | 53 | 42 | 0.0 | 0.0 | 0.04 | 0.98 | 0.25 | 93 | 1010.1 |
| 20260505195243 | 53 | 348 | 0.0 | 0.0 | 0.04 | 0.98 | 0.25 | 93 | 1010.1 |
| 20260505194726 | 53 | 348 | 0.0 | 0.0 | 0.04 | 0.98 | 0.25 | 93 | 1010.1 |
| 20260505194235 | 53 | 348 | 0.0 | 0.0 | 0.08 | 0.98 | 0.25 | 93 | 1010.0 |
| 20260505193739 | 53 | 348 | 0.0 | 0.0 | 0.08 | 0.98 | 0.25 | 93 | 1010.0 |
| 20260505193223 | 53 | 348 | 0.0 | 0.0 | 0.12 | 0.98 | 0.25 | 93 | 1010.0 |
| 20260505192729 | 53 | 348 | 0.0 | 0.0 | 0.12 | 0.98 | 0.25 | 92 | 1010.0 |
| 20260505192254 | 53 | 348 | 0.0 | 0.0 | 0.12 | 0.98 | 0.25 | 92 | 1009.9 |
| 20260505191738 | 53 | 348 | 0.0 | 0.0 | 0.12 | 0.98 | 0.25 | 92 | 1009.8 |
| 20260505191243 | 53 | 348 | 0.0 | 0.0 | 0.12 | 0.98 | 0.25 | 92 | 1009.8 |
| 20260505190726 | 53 | 348 | 0.0 | 0.0 | 0.08 | 0.94 | 0.24 | 92 | 1009.8 |
| 20260505190226 | 53 | 348 | 0.0 | 0.0 | 0.08 | 0.94 | 0.24 | 92 | 1010.0 |
| 20260505185730 | 53 | 348 | 0.0 | 0.0 | 0.08 | 0.94 | 0.24 | 92 | 1009.8 |
| 20260505185236 | 53 | 348 | 0.0 | 0.0 | 0.08 | 0.94 | 0.24 | 92 | 1009.8 |
| 20260505184741 | 53 | 348 | 0.0 | 0.0 | 0.08 | 0.94 | 0.24 | 92 | 1009.8 |
| 20260505184230 | 53 | 348 | 0.0 | 0.0 | 0.04 | 0.91 | 0.23 | 92 | 1009.8 |
| 20260505183735 | 53 | 348 | 0.0 | 0.0 | 0.04 | 0.91 | 0.23 | 92 | 1009.7 |
| 20260505183240 | 53 | 348 | 0.0 | 0.0 | 0.00 | 0.87 | 0.22 | 92 | 1009.7 |
| 20260505182725 | 53 | 348 | 0.0 | 0.0 | 0.00 | 0.87 | 0.22 | 92 | 1009.7 |
| 20260505182231 | 53 | 348 | 0.0 | 0.0 | 0.00 | 0.87 | 0.22 | 92 | 1009.7 |
| 20260505181735 | 53 | 348 | 0.0 | 0.0 | 0.00 | 0.87 | 0.22 | 92 | 1009.7 |
| 20260505181239 | 53 | 348 | 0.0 | 0.0 | 0.00 | 0.87 | 0.22 | 92 | 1009.6 |
| 20260505180803 | 53 | 348 | 0.0 | 0.0 | 0.00 | 0.87 | 0.22 | 92 | 1009.6 |
| 20260505180227 | 53 | 348 | 0.0 | 0.0 | 0.00 | 0.87 | 0.22 | 91 | 1009.5 |
| 20260505175732 | 53 | 348 | 0.0 | 0.0 | 0.00 | 0.87 | 0.22 | 91 | 1009.6 |
| 20260505175238 | 53 | 348 | 0.0 | 0.0 | 0.00 | 0.87 | 0.22 | 91 | 1009.4 |
| 20260505174803 | 53 | 348 | 0.0 | 0.0 | 0.00 | 0.87 | 0.22 | 91 | 1009.4 |
| 20260505174227 | 53 | 348 | 0.0 | 0.0 | 0.00 | 0.87 | 0.22 | 91 | 1009.4 |
| 20260505173736 | 53 | 348 | 0.0 | 0.0 | 0.00 | 0.87 | 0.22 | 91 | 1009.4 |
| 20260505173239 | 53 | 348 | 0.0 | 0.0 | 0.00 | 0.87 | 0.22 | 91 | 1009.5 |
| 20260505172742 | 53 | 348 | 0.0 | 0.0 | 0.00 | 0.87 | 0.22 | 91 | 1009.4 |
| 20260505172228 | 53 | 348 | 0.0 | 0.0 | 0.00 | 0.87 | 0.22 | 91 | 1009.4 |
| 20260505171733 | 53 | 348 | 0.0 | 0.0 | 0.00 | 0.87 | 0.22 | 91 | 1009.4 |
| 20260505171238 | 53 | 348 | 0.0 | 0.0 | 0.00 | 0.87 | 0.22 | 90 | 1009.4 |
| 20260505170723 | 53 | 348 | 0.0 | 0.0 | 0.00 | 0.87 | 0.22 | 90 | 1009.4 |
| 20260505170228 | 53 | 348 | 0.0 | 0.0 | 0.00 | 0.87 | 0.22 | 90 | 1009.4 |
| 20260505165733 | 53 | 5 | 0.0 | 0.0 | 0.00 | 0.87 | 0.22 | 90 | 1009.5 |
| 20260505165237 | 53 | 355 | 0.0 | 0.0 | 0.00 | 0.87 | 0.22 | 90 | 1009.4 |
| 20260505164742 | 53 | 5 | 0.0 | 0.0 | 0.00 | 0.87 | 0.22 | 90 | 1009.6 |
| 20260505164247 | 53 | 334 | 0.0 | 0.0 | 0.00 | 0.87 | 0.22 | 90 | 1009.6 |
| 20260505163730 | 53 | 17 | 0.0 | 0.0 | 0.00 | 0.87 | 0.22 | 90 | 1009.6 |
| 20260505163239 | 53 | 323 | 0.0 | 0.0 | 0.00 | 0.87 | 0.22 | 90 | 1009.6 |
| 20260505162724 | 53 | 30 | 0.0 | 0.0 | 0.00 | 0.87 | 0.22 | 90 | 1009.6 |
| 20260505162228 | 53 | 138 | 0.0 | 0.0 | 0.00 | 0.87 | 0.22 | 90 | 1009.7 |
| 20260505161754 | 53 | 138 | 0.0 | 0.0 | 0.00 | 0.87 | 0.22 | 89 | 1009.7 |
| 20260505161257 | 54 | 138 | 0.0 | 0.0 | 0.00 | 0.87 | 0.22 | 89 | 1009.7 |
| 20260505160741 | 53 | 138 | 0.0 | 0.0 | 0.04 | 0.87 | 0.22 | 89 | 1009.8 |
| 20260505160226 | 54 | 138 | 0.0 | 0.0 | 0.04 | 0.87 | 0.22 | 89 | 1009.8 |
| 20260505153238 | 53 | 138 | 0.0 | 0.0 | 0.04 | 0.87 | 0.22 | 89 | 1009.9 |
| 20260505152804 | 53 | 138 | 0.0 | 0.0 | 0.04 | 0.87 | 0.22 | 89 | 1009.9 |
| 20260505152241 | 53 | 138 | 0.0 | 0.0 | 0.04 | 0.87 | 0.22 | 89 | 1009.9 |
| 20260505151727 | 53 | 138 | 0.0 | 0.0 | 0.04 | 0.87 | 0.22 | 89 | 1009.9 |
| 20260505151232 | 53 | 138 | 0.0 | 1.0 | 0.04 | 0.87 | 0.22 | 88 | 1009.9 |
| 20260505150735 | 53 | 138 | 0.0 | 1.0 | 0.00 | 0.83 | 0.21 | 88 | 1009.8 |
| 20260505150240 | 53 | 138 | 0.0 | 2.0 | 0.00 | 0.83 | 0.21 | 88 | 1009.8 |
| 20260505140222 | 54 | 13 | 4.0 | 6.0 | 0.00 | 0.83 | 0.21 | 87 | 1009.8 |
| 20260505130233 | 54 | 30 | 0.0 | 2.0 | 0.00 | 0.83 | 0.21 | 87 | 1010.2 |
| 20260505124733 | 54 | 31 | 2.0 | 4.0 | 0.00 | 0.83 | 0.21 | 87 | 1010.2 |
| 20260505124238 | 54 | 59 | 2.0 | 4.0 | 0.00 | 0.83 | 0.21 | 87 | 1010.3 |
| 20260505123742 | 54 | 342 | 2.0 | 3.0 | 0.00 | 0.83 | 0.21 | 87 | 1010.2 |
| 20260505123224 | 54 | 221 | 0.0 | 3.0 | 0.00 | 0.83 | 0.21 | 86 | 1010.2 |
| 20260505122729 | 54 | 221 | 1.0 | 3.0 | 0.00 | 0.83 | 0.21 | 86 | 1010.3 |
| 20260505122235 | 54 | 233 | 0.0 | 0.0 | 0.00 | 0.83 | 0.21 | 87 | 1010.3 |
| 20260505121741 | 54 | 233 | 0.0 | 0.0 | 0.00 | 0.83 | 0.21 | 86 | 1010.3 |
| 20260505121246 | 54 | 233 | 0.0 | 2.0 | 0.00 | 0.83 | 0.21 | 87 | 1010.4 |
| 20260505120730 | 54 | 233 | 0.0 | 4.0 | 0.00 | 0.83 | 0.21 | 86 | 1010.3 |
| 20260505120233 | 54 | 180 | 2.0 | 4.0 | 0.00 | 0.83 | 0.21 | 86 | 1010.3 |
| 20260505115736 | 54 | 205 | 3.0 | 4.0 | 0.00 | 0.83 | 0.21 | 86 | 1010.3 |
| 20260505115242 | 54 | 204 | 1.0 | 4.0 | 0.00 | 0.83 | 0.21 | 87 | 1010.3 |
| 20260505114727 | 54 | 183 | 3.0 | 5.0 | 0.00 | 0.83 | 0.21 | 86 | 1010.3 |
| 20260505114235 | 54 | 149 | 1.0 | 2.0 | 0.04 | 0.83 | 0.21 | 87 | 1010.3 |
| 20260505113740 | 54 | 286 | 0.0 | 3.0 | 0.04 | 0.83 | 0.21 | 86 | 1010.2 |
| 20260505113243 | 54 | 250 | 1.0 | 3.0 | 0.04 | 0.83 | 0.21 | 86 | 1010.2 |
| 20260505112747 | 54 | 304 | 1.0 | 5.0 | 0.04 | 0.83 | 0.21 | 86 | 1010.3 |
| 20260505112229 | 54 | 298 | 1.0 | 3.0 | 0.04 | 0.83 | 0.21 | 88 | 1010.3 |
| 20260505111732 | 54 | 49 | 0.0 | 4.0 | 0.04 | 0.83 | 0.21 | 88 | 1010.3 |
| 20260505111237 | 54 | 301 | 2.0 | 7.0 | 0.04 | 0.83 | 0.21 | 88 | 1010.3 |
| 20260505110742 | 54 | 287 | 3.0 | 7.0 | 0.04 | 0.83 | 0.21 | 87 | 1010.3 |
| 20260505110228 | 54 | 314 | 1.0 | 3.0 | 0.04 | 0.83 | 0.21 | 87 | 1010.3 |
| 20260505101736 | 54 | 61 | 3.0 | 12.0 | 0.12 | 0.79 | 0.20 | 84 | 1010.1 |
| 20260505101241 | 53 | 9 | 4.0 | 12.0 | 0.16 | 0.79 | 0.20 | 86 | 1010.1 |
| 20260505100726 | 53 | 35 | 4.0 | 10.0 | 0.20 | 0.79 | 0.20 | 89 | 1010.1 |
| 20260505100231 | 53 | 63 | 4.0 | 9.0 | 0.24 | 0.79 | 0.20 | 90 | 1010.2 |
| 20260505095756 | 53 | 32 | 3.0 | 8.0 | 0.28 | 0.79 | 0.20 | 91 | 1010.3 |
| 20260505095239 | 53 | 46 | 3.0 | 8.0 | 0.35 | 0.79 | 0.20 | 92 | 1010.3 |
| 20260505094725 | 53 | 9 | 3.0 | 8.0 | 0.31 | 0.75 | 0.19 | 91 | 1010.4 |
| 20260505094229 | 53 | 348 | 3.0 | 8.0 | 0.35 | 0.75 | 0.19 | 91 | 1010.5 |
| 20260505093732 | 52 | 13 | 2.0 | 6.0 | 0.35 | 0.75 | 0.19 | 91 | 1010.6 |
| 20260505093237 | 52 | 314 | 2.0 | 8.0 | 0.39 | 0.75 | 0.19 | 91 | 1010.6 |
| 20260505092726 | 52 | 328 | 3.0 | 8.0 | 0.39 | 0.71 | 0.18 | 91 | 1010.7 |
| 20260505092233 | 52 | 319 | 2.0 | 6.0 | 0.39 | 0.67 | 0.18 | 91 | 1010.7 |
| 20260505091738 | 52 | 355 | 3.0 | 6.0 | 0.43 | 0.67 | 0.17 | 91 | 1010.6 |
| 20260505091223 | 52 | 319 | 3.0 | 8.0 | 0.43 | 0.63 | 0.16 | 91 | 1010.7 |
| 20260505090728 | 52 | 9 | 5.0 | 8.0 | 0.43 | 0.59 | 0.15 | 91 | 1010.6 |
| 20260505090234 | 52 | 46 | 4.0 | 8.0 | 0.39 | 0.55 | 0.14 | 91 | 1010.6 |
| 20260505085739 | 52 | 355 | 3.0 | 8.0 | 0.35 | 0.51 | 0.13 | 91 | 1010.7 |
| 20260505085245 | 52 | 336 | 3.0 | 10.0 | 0.28 | 0.43 | 0.11 | 91 | 1010.6 |
| 20260505084750 | 52 | 36 | 3.0 | 10.0 | 0.31 | 0.43 | 0.11 | 91 | 1010.6 |
| 20260505084233 | 52 | 349 | 4.0 | 9.0 | 0.28 | 0.39 | 0.10 | 90 | 1010.6 |
| 20260505083738 | 52 | 35 | 4.0 | 8.0 | 0.28 | 0.39 | 0.10 | 90 | 1010.8 |
| 20260505083224 | 52 | 43 | 2.0 | 4.0 | 0.28 | 0.35 | 0.09 | 89 | 1011.0 |
| 20260505082734 | 52 | 19 | 3.0 | 4.0 | 0.24 | 0.31 | 0.08 | 89 | 1011.0 |
| 20260505082238 | 52 | 20 | 2.0 | 3.0 | 0.20 | 0.28 | 0.07 | 89 | 1011.1 |
| 20260505081742 | 52 | 194 | 0.0 | 1.0 | 0.16 | 0.24 | 0.06 | 89 | 1011.0 |
| 20260505081226 | 52 | 194 | 0.0 | 3.0 | 0.12 | 0.20 | 0.05 | 89 | 1010.9 |
| 20260505080731 | 52 | 194 | 1.0 | 5.0 | 0.12 | 0.16 | 0.04 | 89 | 1010.9 |
| 20260505080235 | 52 | 209 | 3.0 | 7.0 | 0.12 | 0.16 | 0.04 | 89 | 1010.8 |
| 20260505075742 | 52 | 222 | 1.0 | 3.0 | 0.12 | 0.16 | 0.04 | 88 | 1010.8 |
| 20260505075227 | 52 | 48 | 1.0 | 5.0 | 0.16 | 0.16 | 0.04 | 88 | 1010.7 |
| 20260505074732 | 52 | 24 | 3.0 | 5.0 | 0.12 | 0.12 | 0.03 | 88 | 1010.6 |
| 20260505074237 | 52 | 42 | 3.0 | 4.0 | 0.12 | 0.12 | 0.03 | 87 | 1010.7 |
| 20260505073742 | 52 | 41 | 0.0 | 0.0 | 0.12 | 0.12 | 0.03 | 87 | 1010.6 |
| 20260505073247 | 52 | 46 | 0.0 | 0.0 | 0.08 | 0.08 | 0.02 | 86 | 1010.7 |
| 20260505072751 | 52 | 46 | 0.0 | 1.0 | 0.08 | 0.08 | 0.02 | 86 | 1010.6 |
| 20260505072235 | 52 | 46 | 0.0 | 2.0 | 0.08 | 0.08 | 0.02 | 86 | 1010.6 |
| 20260505071802 | 52 | 328 | 0.0 | 4.0 | 0.08 | 0.08 | 0.02 | 86 | 1010.5 |
| 20260505071228 | 52 | 313 | 2.0 | 4.0 | 0.08 | 0.08 | 0.02 | 85 | 1010.5 |
| 20260505070733 | 52 | 67 | 2.0 | 3.0 | 0.04 | 0.04 | 0.01 | 85 | 1010.4 |
| 20260505070238 | 52 | 36 | 0.0 | 0.0 | 0.04 | 0.04 | 0.01 | 84 | 1010.5 |
| 20260505065724 | 52 | 107 | 0.0 | 0.0 | 0.04 | 0.04 | 0.01 | 84 | 1010.4 |
| 20260505065228 | 52 | 115 | 0.0 | 3.0 | 0.00 | 0.00 | 0.00 | 83 | 1010.4 |
| 20260505064734 | 52 | 18 | 0.0 | 4.0 | 0.00 | 0.00 | 0.00 | 82 | 1010.4 |
| 20260505064240 | 52 | 19 | 3.0 | 4.0 | 0.00 | 0.00 | 0.00 | 81 | 1010.3 |
| 20260505063744 | 52 | 355 | 2.0 | 3.0 | 0.00 | 0.00 | 0.00 | 81 | 1010.3 |
| 20260505063228 | 53 | 20 | 1.0 | 2.0 | 0.00 | 0.00 | 0.00 | 81 | 1010.4 |
| 20260505062753 | 52 | 120 | 0.0 | 5.0 | 0.00 | 0.00 | 0.00 | 80 | 1010.3 |
| 20260505062237 | 52 | 130 | 2.0 | 7.0 | 0.00 | 0.00 | 0.00 | 80 | 1010.3 |
| 20260505061802 | 52 | 166 | 2.0 | 6.0 | 0.00 | 0.00 | 0.00 | 79 | 1010.3 |
| 20260505061225 | 52 | 329 | 3.0 | 6.0 | 0.00 | 0.00 | 0.00 | 80 | 1010.1 |
| 20260505060730 | 52 | 44 | 0.0 | 4.0 | 0.00 | 0.00 | 0.00 | 79 | 1010.0 |
| 20260505060238 | 52 | 34 | 1.0 | 4.0 | 0.00 | 0.00 | 0.00 | 80 | 1010.1 |
| 20260505055723 | 51 | 81 | 2.0 | 4.0 | 0.00 | 0.00 | 0.00 | 81 | 1010.2 |
| 20260505055228 | 52 | 22 | 0.0 | 4.0 | 0.00 | 0.00 | 0.00 | 80 | 1010.3 |
| 20260505054734 | 52 | 333 | 2.0 | 3.0 | 0.00 | 0.00 | 0.00 | 80 | 1010.3 |
| 20260505054259 | 51 | 12 | 0.0 | 3.0 | 0.00 | 0.00 | 0.00 | 79 | 1010.1 |
| 20260505053724 | 52 | 12 | 2.0 | 3.0 | 0.00 | 0.00 | 0.00 | 78 | 1010.0 |
| 20260505053229 | 52 | 32 | 0.0 | 0.0 | 0.00 | 0.00 | 0.00 | 78 | 1010.1 |
| 20260505052735 | 52 | 333 | 0.0 | 0.0 | 0.00 | 0.00 | 0.00 | 78 | 1010.1 |
| 20260505052240 | 52 | 326 | 0.0 | 0.0 | 0.00 | 0.00 | 0.00 | 77 | 1010.1 |
| 20260505051724 | 52 | 231 | 0.0 | 0.0 | 0.00 | 0.00 | 0.00 | 77 | 1009.9 |
| 20260505051229 | 52 | 231 | 0.0 | 0.0 | 0.00 | 0.00 | 0.00 | 77 | 1009.9 |
| 20260505050735 | 52 | 231 | 0.0 | 0.0 | 0.00 | 0.00 | 0.00 | 77 | 1009.9 |
| 20260505050225 | 52 | 231 | 0.0 | 1.0 | 0.00 | 0.00 | 0.00 | 77 | 1010.0 |
| 20260505041728 | 51 | 149 | 0.0 | 1.0 | 0.00 | 0.00 | 0.00 | 77 | 1009.6 |
| 20260505041234 | 51 | 149 | 0.0 | 2.0 | 0.00 | 0.00 | 0.00 | 76 | 1009.6 |
| 20260505040801 | 51 | 199 | 0.0 | 4.0 | 0.00 | 0.00 | 0.00 | 76 | 1009.6 |
| 20260505040225 | 51 | 199 | 2.0 | 4.0 | 0.00 | 0.00 | 0.00 | 77 | 1009.6 |
| 20260505035731 | 52 | 71 | 0.0 | 0.0 | 0.00 | 0.00 | 0.00 | 76 | 1009.7 |
| 20260505035237 | 51 | 360 | 0.0 | 1.0 | 0.00 | 0.00 | 0.00 | 76 | 1009.7 |
| 20260505034727 | 51 | 360 | 0.0 | 1.0 | 0.00 | 0.00 | 0.00 | 76 | 1009.7 |
| 20260505034233 | 51 | 235 | 0.0 | 2.0 | 0.00 | 0.00 | 0.00 | 74 | 1009.8 |
| 20260505033738 | 51 | 235 | 1.0 | 2.0 | 0.00 | 0.00 | 0.00 | 75 | 1009.9 |
| 20260505033225 | 52 | 292 | 0.0 | 2.0 | 0.00 | 0.00 | 0.00 | 75 | 1009.9 |
| 20260505032749 | 52 | 292 | 0.0 | 2.0 | 0.00 | 0.00 | 0.00 | 75 | 1009.9 |
| 20260505032234 | 52 | 200 | 0.0 | 1.0 | 0.00 | 0.00 | 0.00 | 74 | 1009.9 |
| 20260505031738 | 52 | 200 | 0.0 | 4.0 | 0.00 | 0.00 | 0.00 | 73 | 1010.0 |
| 20260505031222 | 52 | 200 | 2.0 | 4.0 | 0.00 | 0.00 | 0.00 | 73 | 1010.0 |
| 20260505030748 | 52 | 351 | 0.0 | 5.0 | 0.00 | 0.00 | 0.00 | 73 | 1010.1 |
| 20260505030234 | 51 | 281 | 2.0 | 5.0 | 0.00 | 0.00 | 0.00 | 73 | 1010.1 |
| 20260505025739 | 51 | 200 | 4.0 | 5.0 | 0.00 | 0.00 | 0.00 | 74 | 1010.2 |
| 20260505025225 | 52 | 11 | 0.0 | 3.0 | 0.00 | 0.00 | 0.00 | 73 | 1010.2 |
| 20260505024729 | 52 | 11 | 1.0 | 3.0 | 0.00 | 0.00 | 0.00 | 72 | 1010.3 |
| 20260505024254 | 52 | 17 | 1.0 | 3.0 | 0.00 | 0.00 | 0.00 | 72 | 1010.3 |
| 20260505023723 | 52 | 101 | 1.0 | 3.0 | 0.00 | 0.00 | 0.00 | 72 | 1010.4 |
| 20260505023228 | 52 | 162 | 2.0 | 4.0 | 0.00 | 0.00 | 0.00 | 72 | 1010.4 |
| 20260505022735 | 52 | 161 | 3.0 | 4.0 | 0.00 | 0.00 | 0.00 | 72 | 1010.5 |
| 20260505022240 | 52 | 325 | 0.0 | 4.0 | 0.00 | 0.00 | 0.00 | 71 | 1010.6 |
| 20260505021725 | 52 | 329 | 1.0 | 4.0 | 0.00 | 0.00 | 0.00 | 71 | 1010.6 |
| 20260505021229 | 52 | 311 | 1.0 | 7.0 | 0.00 | 0.00 | 0.00 | 71 | 1010.5 |
| 20260505020736 | 52 | 9 | 4.0 | 9.0 | 0.00 | 0.00 | 0.00 | 71 | 1010.6 |
| 20260505020240 | 51 | 74 | 5.0 | 9.0 | 0.00 | 0.00 | 0.00 | 73 | 1010.6 |
| 20260505015726 | 51 | 22 | 3.0 | 6.0 | 0.00 | 0.00 | 0.00 | 73 | 1010.7 |
| 20260505015231 | 51 | 25 | 2.0 | 9.0 | 0.00 | 0.00 | 0.00 | 72 | 1010.7 |
| 20260505014737 | 51 | 23 | 3.0 | 9.0 | 0.00 | 0.00 | 0.00 | 72 | 1010.8 |